Hors Challenge

Naturarun - La Hulpe (9.00 km)

dimanche 21 novembre 2021

Vous pouvez trouver Le classement original sur : https://my.raceresult.com
 
NATURARUN - LA HULPE
DISTANCE : 9.00 km
dimanche 21 novembre 2021
 
Place dos NOM Catégorie Pl/cat temps temps/km Vitesse
01:00:00              
1 3325 SEBASTIEN MAHIA SH 1 0:31:41 03:31 17.04
2 3300 SYDNEY CABUY SH 2 0:32:41 03:38 16.52
3 3321 DENYS GOBERT SH 3 0:32:46 03:38 16.48
4 3256 DAVE ESSERS SH 4 0:32:54 03:39 16.41
5 3258 JOËL ENGELEN SH 5 0:33:15 03:42 16.24
6 3241 JEAN-MARC CULOT V2 1 0:33:29 03:43 16.13
7 1496 LUCIAN MUNTEAN SH 6 0:35:34 03:57 15.18
8 3284 MARTH STINCKENS SD 1 0:36:20 04:02 14.86
9 3261 FRANK VAN TRICHT V1 1 0:37:13 04:08 14.51
10 1162 NIKITA TISSOT SD 2 0:37:17 04:09 14.48
11 1445 MATHIEU GAILLARD V1 2 0:37:45 04:12 14.30
12 3298 MAXIME TANCRÉ SH 7 0:38:04 04:14 14.19
13 3333 BAUWENS ERWANN SH 8 0:38:06 04:14 14.17
14 1374 PIERRE BROWET SH 9 0:39:09 04:21 13.79
15 1482 VINCENT JANSSEN SH 10 0:39:13 04:21 13.77
16 3288 HÉLÈNE RASSART SD 3 0:39:14 04:22 13.76
17 1474 FRANÇOIS JEUX SH 11 0:39:21 04:22 13.72
18 3311 YVES UERLINGS V1 3 0:39:42 04:25 13.60
19 1062 ROMAIN DROUARD SH 12 0:40:02 04:27 13.49
20 3320 MARINE BAUWENS SD 4 0:40:30 04:30 13.33
21 1404 OSCAR DELMEULLE JH 1 0:40:31 04:30 13.33
22 1149 GAETAN D’HONDT SH 13 0:40:46 04:32 13.25
23 1107 HÉLOÏSE GRÉGOIRE SD 5 0:41:04 04:34 13.15
24 1161 ARNAUD BROWET SH 14 0:41:10 04:34 13.12
25 1489 SIDNEY DEPROOST SH 15 0:41:16 04:35 13.09
26 1064 RUBEN NICASY SH 16 0:41:58 04:40 12.87
27 1066 STEF PARYS SH 17 0:41:59 04:40 12.86
28 1063 FRANCOIS PETITJEAN SH 18 0:42:02 04:40 12.85
29 1135 RICHARD DEMMERS SH 19 0:42:08 04:41 12.82
30 3306 ROXANE HAUZEUR SD 6 0:42:23 04:43 12.74
31 3317 TANGUY VAN DER ELST SH 20 0:42:34 04:44 12.69
32 3334 ANTOINE LEROY SH 21 0:42:57 04:46 12.57
33 3315 NOÉMIE MARTIN SD 7 0:43:04 04:47 12.54
34 3299 LENNARD VAN SOEST V2 2 0:43:18 04:49 12.47
35 3323 DAVID GELENDER SH 22 0:44:01 04:53 12.27
36 3316 YSALINE NOBELS SD 8 0:44:11 04:55 12.22
37 1399 QUENTIN DELVOYE SH 23 0:44:12 04:55 12.22
38 1385 JUSTINE MAUROIT A1 1 0:44:12 04:55 12.22
39 1389 FRANÇOIS WILLEMS SH 24 0:44:23 04:56 12.17
40 1038 MATHIEU DEPRÊTRE SH 25 0:44:25 04:56 12.16
41 1388 NURIA MATA GARCIA SD 9 0:44:27 04:56 12.15
42 3295 MAÏTÉ BATABOUDILA SD 10 0:44:47 04:59 12.06
43 1373 LUCIEN BOURRY JH 2 0:44:49 04:59 12.05
44 1396 CAMILLE VAN LAER SD 11 0:45:03 05:00 11.99
45 1429 DAVID STEVENS SH 26 0:45:09 05:01 11.96
46 1193 ERIC VAN STAEN V1 4 0:45:12 05:01 11.95
47 3283 SOPHIE MILIOPOULOS SD 12 0:45:21 05:02 11.91
48 1371 JOACHIM BOURRY SH 27 0:45:39 05:04 11.83
49 1104 RICCARDO BURLIZZI SH 28 0:45:48 05:05 11.79
50 576 JOERI SPREUTELS SH 29 0:46:17 05:09 11.67
51 1470 GUSTAVE RUTINDANGERI SH 30 0:46:27 05:10 11.63
52 3307 SIMON DEKOKER SH 31 0:46:32 05:10 11.60
53 518 SENNE VAN HERBRUGGEN SH 32 0:46:39 05:11 11.58
54 1065 JAN DE SOBRIE SH 33 0:46:40 05:11 11.57
55 1491 FRANÇOIS TAQUIN SH 34 0:46:54 05:13 11.51
56 1490 LAURA BRACKE SD 13 0:46:55 05:13 11.51
57 1191 ANDREA HALMOS A1 2 0:46:57 05:13 11.50
58 1018 IWEIN DE BAETSELIER SH 35 0:46:58 05:13 11.50
59 1395 MANOË FLÉMAL SD 14 0:47:02 05:14 11.48
60 3228 SAM PERSYN SH 36 0:47:12 05:15 11.44
61 1453 SOFIE DOBBELAERE A1 3 0:47:20 05:16 11.41
62 1452 ARN BORSTLAP SH 37 0:47:22 05:16 11.40
63 1481 QUINTEN VAN ESSCHE SH 38 0:47:23 05:16 11.40
64 1480 MAUD VAN HAEGENBORGH SD 15 0:47:32 05:17 11.36
65 5685 MICHEL HERCKENRATH V2 3 0:47:43 05:18 11.32
66 1003 AN VAN ROEY SD 16 0:47:52 05:19 11.28
67 1277 KEVIN DE SMET SH 39 0:47:54 05:19 11.27
68 3314 GARY DELVOSALLE SH 40 0:48:17 05:22 11.18
69 494 NIKI VROOM V1 5 0:48:20 05:22 11.17
70 3292 FABIO LIBERTI V1 6 0:48:36 05:24 11.11
71 1403 JEROME DELMEULLE V1 7 0:48:37 05:24 11.11
72 1288 VERENA IVEN SD 17 0:48:37 05:24 11.11
73 3330 KEN DUMEZ V1 8 0:48:48 05:25 11.07
74 3329 KRISTIEN VAN KEER A1 4 0:48:48 05:25 11.07
75 1007 ILARIA CROTTI SD 18 0:48:51 05:26 11.05
76 3303 INGO SCHIRMER V1 9 0:48:53 05:26 11.05
77 1103 CYRIL LÉNELLE SH 41 0:49:14 05:28 10.97
78 3289 STEFANO BALDI SH 42 0:49:34 05:30 10.89
79 1444 EMILIE GAILLARD A1 5 0:49:42 05:31 10.87
80 1291 LELDE KIELA VILUMSONE A1 6 0:49:46 05:32 10.85
81 1239 LOUIS WILLEM JH 3 0:49:46 05:32 10.85
82 3327 FEDERICO MACCHI SH 43 0:50:00 05:33 10.80
83 1121 OLIVER ARETZ V1 10 0:50:18 05:35 10.74
84 1111 CAMILLE QUINTIN SD 19 0:50:26 05:36 10.71
85 1114 ALICE NUCCI SD 20 0:50:26 05:36 10.71
86 3309 NATHAN DEKOKER SH 44 0:50:31 05:37 10.69
87 1423 ANTOINE CAMBRON SH 45 0:50:55 05:39 10.61
88 1356 MURIEL PARENT A1 7 0:51:08 05:41 10.56
89 1106 THOMAS DEWULF SH 46 0:51:13 05:41 10.54
90 1105 MARIE AUQUIERE SD 21 0:51:16 05:42 10.53
91 1044 FEDERICO DE CESARIS SH 47 0:51:36 05:44 10.47
92 1326 ISABELLE DISPA SD 22 0:51:37 05:44 10.46
93 3318 NIELS MAERTENS SH 48 0:51:47 05:45 10.43
94 3324 MARIE VAN DER HASSELT SD 23 0:51:53 05:46 10.41
95 3319 SIMON VERMEULEN XXX   0:51:57 05:46 10.39
96 1168 DEVAUX JULIE SD 24 0:52:26 05:50 10.30
97 3293 MATHILDE GALAIS SD 25 0:52:27 05:50 10.30
98 3302 CLÉMENT QUOIX JH 4 0:52:33 05:50 10.28
99 1293 BENJAMIN MELAIN SH 49 0:52:36 05:51 10.27
100 1232 CATHERINE VAN LERBERGER SD 26 0:52:48 05:52 10.23
101 1119 MAXENCE DELVAL SH 50 0:52:49 05:52 10.22
102 577 SYLVIA NOE A1 8 0:52:54 05:53 10.21
103 1398 AURÉLIE RONDENBOSCH SD 27 0:53:26 05:56 10.11
104 3297 DIDIER CABUY SH 51 0:53:37 05:57 10.07
105 3285 DAVID ALEWATERS V1 11 0:53:47 05:59 10.04
106 1350 DOROTHÉE FOBE SD 28 0:53:58 06:00 10.01
107 1181 MATHIEU STRYPSTEIN JH 5 0:54:20 06:02 9.94
108 1402 SARAH CORDAZZO DELMEULLE A1 9 0:54:23 06:03 9.93
109 3268 OPHÉLIE BROZE SD 29 0:54:24 06:03 9.93
110 1325 SOPHIE LAMOTTE SD 30 0:54:27 06:03 9.92
111 1182 NATHAN STRYPSTEIN JH 6 0:54:29 06:03 9.91
112 1449 ANTONIO BUX V2 4 0:54:31 06:03 9.91
113 1180 NICOLAS STRYPSTEIN V1 12 0:54:32 06:04 9.90
114 535 INNE LEFEVER SD 31 0:54:50 06:06 9.85
115 3331 SOPHIE HAENECOUR SD 32 0:55:27 06:10 9.74
116 237 AMÉLIE MATHIEU SD 33 0:55:27 06:10 9.74
117 3322 CAROLE NAVARRO SD 34 0:55:28 06:10 9.74
118 3332 CATHERINE CUCHE A2 1 0:55:31 06:10 9.73
119 3326 MARC TJWA V1 13 0:55:35 06:11 9.72
120 3310 LAURENT DE ROS V1 14 0:55:41 06:11 9.70
121 1175 GAELLE VAN TUYKOM A1 10 0:55:54 06:13 9.66
122 1314 NOLWENN DESMOUCEAUX SD 35 0:56:11 06:15 9.61
123 3294 ANAIS BATABOUDILA SD 36 0:56:17 06:15 9.59
124 1090 JENIFER MAHAUDEN SD 37 0:56:22 06:16 9.58
125 1473 DIANE SPROCKEELS SD 38 0:56:34 06:17 9.55
126 1471 ASTRID JACQUES SD 39 0:56:36 06:17 9.54
127 3276 CLOTHILDE VAN RENTERGHEM SD 40 0:56:39 06:18 9.53
128 1283 MARIE-ROSE SOLLAMI A1 11 0:56:53 06:19 9.49
129 1075 EMANUELA FELICI A1 12 0:56:55 06:19 9.49
130 1076 ROSARIO PROVENZANO V2 5 0:56:58 06:20 9.48
131 1216 STÉPHANE STIERNET V1 15 0:57:20 06:22 9.42
132 1442 PHILIPPE ANGILLIS V2 6 0:57:30 06:23 9.39
133 1499 EIFLER INNE SD 41 0:57:33 06:24 9.38
134 1043 COSTANZA PIERDONATI SD 42 0:57:34 06:24 9.38
135 1421 LAUREEN STEINIER SD 43 0:57:38 06:24 9.37
136 3328 SYLVAIN ROSSEEL SH 52 0:57:48 06:25 9.34
137 1422 ANNE HECHTERMANS SD 44 0:57:52 06:26 9.33
138 1205 NHU TIEN NGUYEN-NHU V1 16 0:58:16 06:28 9.27
139 3301 NICOLAS QUOIX V1 17 0:58:43 06:31 9.20
140 1405 MARIE BOURGYS SD 45 0:58:53 06:33 9.17
141 1401 CAROLINE VANHAELEN SD 46 0:58:53 06:33 9.17
142 1332 AURÉLIE LEBRETON SD 47 0:58:57 06:33 9.16
143 1330 ALEXANDRA MOENS SD 48 0:58:58 06:33 9.16
144 3252 ARIANE PINCHART A3 1 0:59:07 06:34 9.13
145 1126 GILLES ALAERTS V1 18 0:59:45 06:38 9.04
146 1295 SOPHIE VANAUDENRODE A1 13 0:59:57 06:40 9.01
147 1335 ANN CNOPS A1 14 0:59:58 06:40 9.01
148 3216 ZHIXI ZHU JF 1 1:00:06 06:41 8.99
149 1061 IOANNIS KROUSTALIS V1 19 1:00:20 06:42 8.95
150 3312 JAINA FERNANDEZ GONZALEZ A1 15 1:00:22 06:42 8.95
151 3313 ANNA SEMERARO A2 2 1:00:24 06:43 8.94
152 1460 MAXIME STRADELLI SH 53 1:00:29 06:43 8.93
153 1461 NATHAN ROUVROY SH 54 1:00:30 06:43 8.93
154 5675 IRIS STRAUS SD 49 1:00:36 06:44 8.91
155 1333 GAETAN BRODBECK SH 55 1:00:36 06:44 8.91
156 1360 LARA PIERS SD 50 1:00:42 06:45 8.90
157 1323 AI-MINH CAO SD 51 1:01:17 06:49 8.81
158 1136 LIEKE KLUIVER SD 52 1:01:19 06:49 8.81
159 1437 ANNE DECHAMPS A3 2 1:01:50 06:52 8.73
160 1278 FILIP DE SMET V1 20 1:02:06 06:54 8.70
161 1177 EVA HOUBEN SD 53 1:02:31 06:57 8.64
162 1170 LAURA VAN TRIER SD 54 1:02:32 06:57 8.64
163 3304 CÉLINDA DE ALMEIDA A1 16 1:02:32 06:57 8.64
164 3305 JULIE NOËL A1 17 1:02:48 06:59 8.60
165 1337 CYRIELLE JACQUES SD 55 01:03:20 07:02 8.53
166 1125 LAETITIA DELACROIX SD 56 01:03:22 07:02 8.52
167 1123 AURÉLIE STEINBACH A1 18 01:03:22 07:02 8.52
168 1324 VALENTINE DUMONT SD 57 01:03:22 07:02 8.52
169 1215 ALICIA SANJUAN SD 58 01:04:18 07:09 8.40
170 1316 SOPHIE NANNETTI A1 19 01:04:33 07:10 8.37
171 3290 MICHAËL DE SMET V1 21 01:04:34 07:10 8.36
172 1317 MARIE-LAURE NANNETTI A1 20 01:04:34 07:10 8.36
173 1120 PAULINE DELVAL SD 59 01:04:39 07:11 8.35
174 1459 ALENA BAUR SD 60 01:05:45 07:18 8.21
175 1448 JAN STADLER SH 56 01:05:45 07:18 8.21
176 3336 JEAN PAUWELS V1 22 01:06:32 07:24 8.12
177 1194 CAROLINE VAN STAEN A1 21 01:06:46 07:25 8.09
178 1372 HÉLÈNE RICHARDEAU A1 22 01:07:01 07:27 8.06
179 1487 ISABELLE STEENEBRUGGEN A1 23 01:07:45 07:32 7.97
180 1369 VIRGINIE MOTTE A1 24 01:08:51 07:39 7.84
181 1218 FRANÇOIS WILKIN V2 7 01:08:53 07:39 7.84
182 1370 SANDRINE USAI A1 25 01:08:58 07:40 7.83
183 3308 SARAH DEKOKER SD 61 01:09:13 07:41 7.80
184 3232 CHLOE VANHEE A1 26 01:10:40 07:51 7.64
185 1100 VÉRONIQUE DELFOSSE A2 3 01:17:46 08:38 6.94
186 3335 VALÉRIE BOSIO A1 27 01:24:40 09:24 6.38
               
Nos dernières videos